WLF88S FZAA-FCPP

Flight info

Callsign WLF88S
Flight time 1h 12m
Altitude 5000
Route KSA DCT IT
Aircraft AEST/L-SDFGRY/S

Departure

Time 2026-05-04 17:40
Airport Ndjili International Airport (FZAA)

Arrival

Time 2026-05-04 18:53
Airport Antonio Agostinho-Neto International Airport (FCPP)
Time Latitude Longitude Altitude Speed Heading
2026-05-04 17:17 -4.38896 15.44501 1028 ft 0 kts 194°
2026-05-04 17:36 -4.38874 15.44500 1028 ft 12 kts 39°
2026-05-04 17:36 -4.38793 15.44527 1027 ft 12 kts 14°
2026-05-04 17:37 -4.38713 15.44545 1028 ft 11 kts 342°
2026-05-04 17:37 -4.38654 15.44508 1028 ft 8 kts 327°
2026-05-04 17:37 -4.38651 15.44506 1028 ft 0 kts 327°
2026-05-04 17:38 -4.38650 15.44506 1028 ft 1 kts 327°
2026-05-04 17:38 -4.38593 15.44469 1027 ft 12 kts 327°
2026-05-04 17:38 -4.38570 15.44454 1027 ft 3 kts 315°
2026-05-04 17:39 -4.38623 15.44359 1026 ft 51 kts 237°
2026-05-04 17:39 -4.38946 15.43862 1032 ft 109 kts 236°
2026-05-04 17:39 -4.39394 15.43168 1135 ft 126 kts 236°
2026-05-04 17:40 -4.39922 15.42378 1429 ft 146 kts 234°
2026-05-04 17:40 -4.40397 15.41406 1711 ft 160 kts 263°
2026-05-04 17:40 -4.40276 15.40282 1998 ft 168 kts 266°
2026-05-04 17:40 -4.40480 15.39103 2255 ft 177 kts 255°
2026-05-04 17:41 -4.40760 15.37844 2321 ft 192 kts 259°
2026-05-04 17:41 -4.40970 15.36474 2394 ft 203 kts 261°
2026-05-04 17:41 -4.41176 15.35059 2484 ft 208 kts 261°
2026-05-04 17:41 -4.41389 15.33620 2549 ft 210 kts 260°
2026-05-04 17:42 -4.41599 15.32171 2670 ft 209 kts 261°
2026-05-04 17:42 -4.41797 15.30736 2792 ft 208 kts 261°
2026-05-04 17:42 -4.41998 15.29302 2925 ft 207 kts 261°
2026-05-04 17:42 -4.42200 15.27875 3057 ft 207 kts 260°
2026-05-04 17:43 -4.42403 15.26447 3057 ft 213 kts 261°
2026-05-04 17:43 -4.42612 15.24963 3031 ft 217 kts 260°
2026-05-04 17:43 -4.42827 15.23435 3011 ft 219 kts 260°
2026-05-04 17:43 -4.43042 15.21948 3024 ft 218 kts 260°
2026-05-04 17:44 -4.43261 15.20434 3034 ft 220 kts 261°
2026-05-04 17:44 -4.43476 15.18911 3029 ft 221 kts 261°
2026-05-04 17:44 -4.43689 15.17388 3025 ft 221 kts 261°
2026-05-04 17:44 -4.43899 15.15873 3025 ft 219 kts 261°
2026-05-04 17:45 -4.44103 15.14367 3027 ft 217 kts 261°
2026-05-04 17:45 -4.44306 15.12867 3029 ft 217 kts 261°
2026-05-04 17:45 -4.44516 15.11369 3032 ft 217 kts 261°
2026-05-04 17:45 -4.44724 15.09883 3028 ft 211 kts 261°
2026-05-04 17:46 -4.44919 15.08466 3039 ft 200 kts 261°
2026-05-04 17:46 -4.45111 15.07104 3022 ft 195 kts 261°
2026-05-04 17:46 -4.45298 15.05775 3027 ft 190 kts 261°
2026-05-04 17:46 -4.45482 15.04471 3034 ft 188 kts 261°
2026-05-04 17:47 -4.45664 15.03186 3033 ft 183 kts 260°
2026-05-04 17:47 -4.45838 15.01935 3038 ft 181 kts 260°
2026-05-04 17:47 -4.46015 15.00678 3044 ft 183 kts 260°
2026-05-04 17:47 -4.46197 14.99410 3039 ft 184 kts 260°
2026-05-04 17:48 -4.46379 14.98135 3043 ft 185 kts 260°
2026-05-04 17:48 -4.46560 14.96862 3037 ft 185 kts 261°
2026-05-04 17:48 -4.46740 14.95588 3037 ft 185 kts 260°
2026-05-04 17:48 -4.46919 14.94316 3043 ft 184 kts 260°
2026-05-04 17:49 -4.47102 14.93043 3054 ft 185 kts 261°
2026-05-04 17:49 -4.47283 14.91763 3047 ft 186 kts 261°
2026-05-04 17:49 -4.47461 14.90487 3045 ft 185 kts 261°
2026-05-04 17:49 -4.47629 14.89220 3045 ft 182 kts 260°
2026-05-04 17:50 -4.47799 14.87955 3047 ft 183 kts 260°
2026-05-04 17:50 -4.47976 14.86683 3041 ft 184 kts 260°
2026-05-04 17:50 -4.48163 14.85422 3047 ft 184 kts 260°
2026-05-04 17:50 -4.48346 14.84154 3041 ft 183 kts 260°
2026-05-04 17:51 -4.48528 14.82889 3036 ft 183 kts 260°
2026-05-04 17:51 -4.48706 14.81628 3042 ft 183 kts 261°
2026-05-04 17:51 -4.48886 14.80365 3041 ft 182 kts 261°
2026-05-04 17:51 -4.49065 14.79108 3052 ft 183 kts 261°
2026-05-04 17:52 -4.49241 14.77847 3034 ft 183 kts 261°
2026-05-04 17:52 -4.49410 14.76589 3052 ft 181 kts 261°
2026-05-04 17:52 -4.49569 14.75339 3044 ft 181 kts 260°
2026-05-04 17:52 -4.49735 14.74089 3044 ft 181 kts 261°
2026-05-04 17:53 -4.49903 14.72841 3059 ft 181 kts 260°
2026-05-04 17:53 -4.50070 14.71581 3052 ft 183 kts 260°
2026-05-04 17:53 -4.50238 14.70334 3048 ft 182 kts 260°
2026-05-04 17:53 -4.50414 14.69075 3050 ft 183 kts 260°
2026-05-04 17:54 -4.50597 14.67815 3042 ft 183 kts 260°
2026-05-04 17:54 -4.50787 14.66554 3047 ft 183 kts 260°
2026-05-04 17:54 -4.50981 14.65291 3045 ft 184 kts 260°
2026-05-04 17:54 -4.51175 14.64022 3044 ft 183 kts 260°
2026-05-04 17:55 -4.51363 14.62766 3037 ft 182 kts 260°
2026-05-04 17:55 -4.51486 14.61921 3047 ft 180 kts 260°
2026-05-04 17:55 -4.51666 14.60672 3048 ft 182 kts 260°
2026-05-04 17:55 -4.51905 14.59002 3056 ft 183 kts 260°
2026-05-04 17:56 -4.52025 14.58146 3050 ft 184 kts 260°
2026-05-04 17:56 -4.52252 14.56469 3048 ft 183 kts 260°
2026-05-04 17:56 -4.52369 14.55633 3046 ft 183 kts 260°
2026-05-04 17:56 -4.52540 14.54365 3048 ft 182 kts 260°
2026-05-04 17:57 -4.52717 14.53110 3048 ft 182 kts 260°
2026-05-04 17:57 -4.52901 14.51854 3056 ft 183 kts 260°
2026-05-04 17:57 -4.53088 14.50588 3046 ft 183 kts 260°
2026-05-04 17:57 -4.53262 14.49326 3050 ft 182 kts 261°
2026-05-04 17:58 -4.53418 14.48075 3051 ft 181 kts 261°
2026-05-04 17:58 -4.53578 14.46824 3055 ft 182 kts 261°
2026-05-04 17:58 -4.53747 14.45528 3065 ft 193 kts 261°
2026-05-04 17:58 -4.53923 14.44158 3057 ft 202 kts 261°
2026-05-04 17:59 -4.54103 14.42737 3054 ft 208 kts 261°
2026-05-04 17:59 -4.54286 14.41293 3056 ft 210 kts 261°
2026-05-04 17:59 -4.54656 14.38342 3044 ft 216 kts 261°
2026-05-04 18:00 -4.54854 14.36843 3051 ft 217 kts 261°
2026-05-04 18:00 -4.55042 14.35365 3063 ft 216 kts 261°
2026-05-04 18:00 -4.55235 14.33862 3059 ft 215 kts 261°
2026-05-04 18:00 -4.55432 14.32395 3060 ft 216 kts 261°
2026-05-04 18:01 -4.55636 14.30905 3056 ft 216 kts 261°
2026-05-04 18:01 -4.55842 14.29416 3051 ft 214 kts 261°
2026-05-04 18:01 -4.56042 14.27933 3051 ft 215 kts 261°
2026-05-04 18:02 -4.56452 14.24963 3057 ft 215 kts 261°
2026-05-04 18:02 -4.56658 14.23467 3054 ft 217 kts 261°
2026-05-04 18:02 -4.56853 14.21974 3052 ft 216 kts 261°
2026-05-04 18:02 -4.57042 14.20480 3049 ft 216 kts 261°
2026-05-04 18:03 -4.57239 14.18982 3053 ft 216 kts 261°
2026-05-04 18:03 -4.57434 14.17482 3050 ft 218 kts 261°
2026-05-04 18:03 -4.57627 14.15982 3051 ft 217 kts 261°
2026-05-04 18:03 -4.57820 14.14486 3052 ft 216 kts 261°
2026-05-04 18:04 -4.58018 14.12987 3053 ft 216 kts 261°
2026-05-04 18:04 -4.58223 14.11492 3054 ft 218 kts 261°
2026-05-04 18:04 -4.58640 14.08476 3047 ft 218 kts 261°
2026-05-04 18:05 -4.58846 14.06996 3054 ft 217 kts 261°
2026-05-04 18:05 -4.59051 14.05499 3055 ft 217 kts 261°
2026-05-04 18:05 -4.59254 14.03998 3052 ft 218 kts 261°
2026-05-04 18:05 -4.59454 14.02493 3055 ft 217 kts 261°
2026-05-04 18:06 -4.59848 13.99489 3051 ft 217 kts 261°
2026-05-04 18:06 -4.60051 13.97996 3051 ft 216 kts 261°
2026-05-04 18:06 -4.60261 13.96499 3049 ft 217 kts 261°
2026-05-04 18:07 -4.60466 13.95008 3043 ft 216 kts 261°
2026-05-04 18:07 -4.60672 13.93516 3052 ft 215 kts 261°
2026-05-04 18:07 -4.60879 13.92028 3050 ft 216 kts 261°
2026-05-04 18:07 -4.61084 13.90532 3051 ft 217 kts 261°
2026-05-04 18:08 -4.61286 13.89028 3045 ft 217 kts 261°
2026-05-04 18:08 -4.61486 13.87531 3054 ft 218 kts 261°
2026-05-04 18:08 -4.61682 13.86030 3049 ft 217 kts 261°
2026-05-04 18:08 -4.61881 13.84531 3051 ft 217 kts 261°
2026-05-04 18:09 -4.62291 13.81515 3053 ft 219 kts 261°
2026-05-04 18:09 -4.62710 13.78504 3055 ft 218 kts 261°
2026-05-04 18:10 -4.62925 13.76992 3045 ft 219 kts 261°
2026-05-04 18:10 -4.63138 13.75484 3047 ft 218 kts 261°
2026-05-04 18:10 -4.63350 13.73983 3046 ft 217 kts 261°
2026-05-04 18:10 -4.63563 13.72479 3050 ft 218 kts 261°
2026-05-04 18:11 -4.63774 13.70976 3045 ft 217 kts 261°
2026-05-04 18:11 -4.63985 13.69471 3047 ft 218 kts 261°
2026-05-04 18:11 -4.64196 13.67967 3047 ft 218 kts 261°
2026-05-04 18:11 -4.64404 13.66485 3049 ft 218 kts 261°
2026-05-04 18:12 -4.64616 13.64984 3050 ft 218 kts 261°
2026-05-04 18:12 -4.64824 13.63477 3048 ft 218 kts 261°
2026-05-04 18:12 -4.65030 13.61970 3046 ft 218 kts 261°
2026-05-04 18:12 -4.65237 13.60462 3049 ft 218 kts 261°
2026-05-04 18:13 -4.65447 13.58958 3049 ft 218 kts 261°
2026-05-04 18:13 -4.65659 13.57455 3049 ft 218 kts 261°
2026-05-04 18:13 -4.66084 13.54440 3047 ft 218 kts 261°
2026-05-04 18:14 -4.66296 13.52935 3045 ft 218 kts 261°
2026-05-04 18:14 -4.66511 13.51431 3046 ft 218 kts 261°
2026-05-04 18:14 -4.66726 13.49923 3047 ft 218 kts 261°
2026-05-04 18:15 -4.67156 13.46908 3046 ft 218 kts 261°
2026-05-04 18:15 -4.67585 13.43886 3043 ft 219 kts 261°
2026-05-04 18:15 -4.67801 13.42377 3047 ft 219 kts 261°
2026-05-04 18:16 -4.68022 13.40872 3051 ft 218 kts 261°
2026-05-04 18:16 -4.68241 13.39369 3049 ft 218 kts 261°
2026-05-04 18:16 -4.68460 13.37864 3048 ft 218 kts 261°
2026-05-04 18:17 -4.68892 13.34853 3046 ft 218 kts 261°
2026-05-04 18:17 -4.69111 13.33347 3044 ft 219 kts 261°
2026-05-04 18:17 -4.69550 13.30331 3050 ft 219 kts 261°
2026-05-04 18:18 -4.69766 13.28818 3049 ft 219 kts 261°
2026-05-04 18:18 -4.69983 13.27308 3043 ft 219 kts 261°
2026-05-04 18:18 -4.70201 13.25797 3048 ft 219 kts 261°
2026-05-04 18:18 -4.70419 13.24305 3041 ft 219 kts 261°
2026-05-04 18:19 -4.70861 13.21279 3046 ft 219 kts 261°
2026-05-04 18:19 -4.71077 13.19771 3042 ft 219 kts 261°
2026-05-04 18:19 -4.71293 13.18264 3044 ft 219 kts 261°
2026-05-04 18:20 -4.71508 13.16751 3036 ft 219 kts 261°
2026-05-04 18:20 -4.71725 13.15243 3049 ft 219 kts 261°
2026-05-04 18:20 -4.71945 13.13733 3041 ft 219 kts 261°
2026-05-04 18:20 -4.72161 13.12225 3033 ft 217 kts 261°
2026-05-04 18:21 -4.72370 13.10728 3054 ft 216 kts 261°
2026-05-04 18:21 -4.72579 13.09232 3036 ft 217 kts 261°
2026-05-04 18:21 -4.72788 13.07736 3048 ft 218 kts 261°
2026-05-04 18:21 -4.73002 13.06232 3043 ft 218 kts 261°
2026-05-04 18:22 -4.73216 13.04731 3038 ft 218 kts 261°
2026-05-04 18:22 -4.73434 13.03227 3038 ft 217 kts 261°
2026-05-04 18:22 -4.73649 13.01734 3045 ft 217 kts 261°
2026-05-04 18:22 -4.73861 13.00236 3040 ft 217 kts 261°
2026-05-04 18:23 -4.74073 12.98735 3042 ft 218 kts 261°
2026-05-04 18:23 -4.74288 12.97229 3038 ft 218 kts 261°
2026-05-04 18:23 -4.74506 12.95730 3042 ft 217 kts 261°
2026-05-04 18:23 -4.74725 12.94232 3044 ft 218 kts 261°
2026-05-04 18:24 -4.74937 12.92731 3039 ft 218 kts 261°
2026-05-04 18:24 -4.75151 12.91221 3039 ft 218 kts 261°
2026-05-04 18:24 -4.75367 12.89717 3041 ft 218 kts 261°
2026-05-04 18:24 -4.75583 12.88221 3042 ft 217 kts 261°
2026-05-04 18:25 -4.75798 12.86719 3031 ft 217 kts 261°
2026-05-04 18:25 -4.76015 12.85219 3031 ft 217 kts 261°
2026-05-04 18:25 -4.76232 12.83723 3041 ft 217 kts 261°
2026-05-04 18:25 -4.76451 12.82229 3037 ft 217 kts 261°
2026-05-04 18:26 -4.76670 12.80738 3037 ft 216 kts 261°
2026-05-04 18:26 -4.76887 12.79240 3036 ft 217 kts 261°
2026-05-04 18:26 -4.77100 12.77737 3039 ft 218 kts 261°
2026-05-04 18:26 -4.77313 12.76234 3028 ft 219 kts 261°
2026-05-04 18:27 -4.77536 12.74724 3033 ft 219 kts 261°
2026-05-04 18:27 -4.77760 12.73208 3028 ft 220 kts 261°
2026-05-04 18:27 -4.77985 12.71695 3032 ft 219 kts 261°
2026-05-04 18:27 -4.78208 12.70200 3029 ft 220 kts 261°
2026-05-04 18:28 -4.78437 12.68684 3037 ft 220 kts 261°
2026-05-04 18:28 -4.78667 12.67169 3033 ft 220 kts 261°
2026-05-04 18:28 -4.78892 12.65655 3033 ft 220 kts 261°
2026-05-04 18:28 -4.79118 12.64137 3028 ft 220 kts 260°
2026-05-04 18:29 -4.79346 12.62613 3031 ft 221 kts 261°
2026-05-04 18:29 -4.79577 12.61097 3026 ft 221 kts 261°
2026-05-04 18:29 -4.79807 12.59577 3026 ft 221 kts 261°
2026-05-04 18:29 -4.79961 12.58552 3028 ft 220 kts 261°
2026-05-04 18:30 -4.80486 12.55026 3023 ft 220 kts 261°
2026-05-04 18:30 -4.80713 12.53514 3029 ft 220 kts 261°
2026-05-04 18:30 -4.80942 12.51995 3028 ft 220 kts 261°
2026-05-04 18:31 -4.81170 12.50476 3029 ft 220 kts 261°
2026-05-04 18:31 -4.81395 12.48957 3023 ft 221 kts 260°
2026-05-04 18:31 -4.81623 12.47437 3024 ft 220 kts 261°
2026-05-04 18:31 -4.81849 12.45920 3022 ft 220 kts 261°
2026-05-04 18:32 -4.82079 12.44400 3019 ft 220 kts 260°
2026-05-04 18:32 -4.82308 12.42884 3021 ft 221 kts 261°
2026-05-04 18:32 -4.82540 12.41361 3028 ft 220 kts 261°
2026-05-04 18:32 -4.82773 12.39838 3025 ft 222 kts 260°
2026-05-04 18:33 -4.83014 12.38307 3022 ft 223 kts 261°
2026-05-04 18:33 -4.83257 12.36773 3023 ft 223 kts 261°
2026-05-04 18:33 -4.83504 12.35236 3024 ft 223 kts 261°
2026-05-04 18:33 -4.83750 12.33702 3024 ft 223 kts 260°
2026-05-04 18:34 -4.83996 12.32167 3023 ft 223 kts 260°
2026-05-04 18:34 -4.84244 12.30633 3020 ft 223 kts 260°
2026-05-04 18:34 -4.84489 12.29099 3025 ft 222 kts 260°
2026-05-04 18:34 -4.84732 12.27568 3022 ft 223 kts 260°
2026-05-04 18:35 -4.84976 12.26037 3018 ft 223 kts 260°
2026-05-04 18:35 -4.85219 12.24504 3022 ft 223 kts 261°
2026-05-04 18:35 -4.85461 12.22973 3022 ft 223 kts 260°
2026-05-04 18:35 -4.85702 12.21437 3022 ft 223 kts 260°
2026-05-04 18:36 -4.85945 12.19903 3023 ft 223 kts 261°
2026-05-04 18:36 -4.86189 12.18369 3016 ft 223 kts 260°
2026-05-04 18:36 -4.86433 12.16833 3008 ft 223 kts 260°
2026-05-04 18:36 -4.86680 12.15299 3010 ft 223 kts 260°
2026-05-04 18:37 -4.86929 12.13769 3007 ft 223 kts 260°
2026-05-04 18:37 -4.87136 12.12254 3002 ft 223 kts 269°
2026-05-04 18:37 -4.86785 12.10761 3016 ft 222 kts 297°
2026-05-04 18:37 -4.85784 12.09604 3006 ft 223 kts 324°
2026-05-04 18:38 -4.84358 12.09025 3005 ft 223 kts 350°
2026-05-04 18:38 -4.82815 12.08875 2993 ft 223 kts 356°
2026-05-04 18:38 -4.81265 12.08782 3004 ft 223 kts 357°
2026-05-04 18:38 -4.79711 12.08699 3006 ft 223 kts 357°
2026-05-04 18:39 -4.78164 12.08619 3004 ft 223 kts 357°
2026-05-04 18:39 -4.76616 12.08540 3006 ft 223 kts 357°
2026-05-04 18:39 -4.75064 12.08463 3009 ft 223 kts 357°
2026-05-04 18:39 -4.73511 12.08387 3007 ft 224 kts 357°
2026-05-04 18:40 -4.71959 12.08310 3008 ft 223 kts 357°
2026-05-04 18:40 -4.70407 12.08233 3011 ft 223 kts 357°
2026-05-04 18:40 -4.68855 12.08155 3011 ft 223 kts 357°
2026-05-04 18:40 -4.67303 12.08078 3011 ft 224 kts 357°
2026-05-04 18:41 -4.65750 12.07999 3012 ft 224 kts 357°
2026-05-04 18:41 -4.64194 12.07922 3014 ft 223 kts 357°
2026-05-04 18:41 -4.62645 12.07846 3016 ft 223 kts 357°
2026-05-04 18:41 -4.61095 12.07707 3017 ft 224 kts 346°
2026-05-04 18:42 -4.59746 12.07002 3019 ft 223 kts 319°
2026-05-04 18:42 -4.58850 12.05728 3020 ft 223 kts 291°
2026-05-04 18:42 -4.58610 12.04228 3026 ft 222 kts 269°
2026-05-04 18:42 -4.58681 12.02680 3018 ft 223 kts 266°
2026-05-04 18:43 -4.58763 12.01633 3010 ft 223 kts 261°
2026-05-04 18:43 -4.59559 11.99746 3020 ft 222 kts 239°
2026-05-04 18:43 -4.60087 11.98842 3004 ft 223 kts 239°
2026-05-04 18:43 -4.61142 11.97071 3007 ft 223 kts 238°
2026-05-04 18:44 -4.61943 11.95739 3014 ft 223 kts 238°
2026-05-04 18:44 -4.62216 11.95296 3016 ft 223 kts 236°
2026-05-04 18:44 -4.63515 11.93680 3019 ft 222 kts 229°
2026-05-04 18:44 -4.64530 11.92507 3016 ft 223 kts 229°
2026-05-04 18:45 -4.65533 11.91350 3013 ft 223 kts 228°
2026-05-04 18:45 -4.66549 11.90182 3011 ft 222 kts 228°
2026-05-04 18:45 -4.67568 11.89015 3006 ft 223 kts 228°
2026-05-04 18:45 -4.68587 11.87848 3009 ft 222 kts 228°
2026-05-04 18:46 -4.69606 11.86682 3004 ft 223 kts 228°
2026-05-04 18:46 -4.70781 11.85694 3022 ft 221 kts 206°
2026-05-04 18:46 -4.72268 11.85351 3013 ft 220 kts 179°
2026-05-04 18:46 -4.73654 11.85638 2897 ft 190 kts 162°
2026-05-04 18:47 -4.74866 11.86065 2473 ft 183 kts 161°
2026-05-04 18:47 -4.76086 11.86393 2128 ft 183 kts 166°
2026-05-04 18:47 -4.77322 11.86737 1830 ft 180 kts 164°
2026-05-04 18:47 -4.78498 11.87081 1646 ft 174 kts 166°
2026-05-04 18:48 -4.79649 11.87373 1414 ft 167 kts 167°
2026-05-04 18:48 -4.80772 11.87643 1167 ft 168 kts 166°
2026-05-04 18:48 -4.81884 11.87932 1092 ft 160 kts 167°
2026-05-04 18:48 -4.82955 11.88203 997 ft 158 kts 166°
2026-05-04 18:49 -4.83946 11.88660 872 ft 163 kts 140°
2026-05-04 18:49 -4.84452 11.89655 918 ft 159 kts 102°
2026-05-04 18:49 -4.84161 11.90693 900 ft 165 kts 45°
2026-05-04 18:49 -4.83060 11.90996 828 ft 175 kts 347°
2026-05-04 18:50 -4.81903 11.90603 910 ft 170 kts 340°
2026-05-04 18:50 -4.80783 11.90151 904 ft 177 kts 336°
2026-05-04 18:50 -4.79647 11.89740 1066 ft 165 kts 338°
2026-05-04 18:50 -4.78588 11.89280 1073 ft 168 kts 335°
2026-05-04 18:51 -4.77501 11.88839 1077 ft 168 kts 322°
2026-05-04 18:51 -4.76991 11.87835 852 ft 175 kts 266°
2026-05-04 18:51 -4.77617 11.86985 614 ft 145 kts 192°
2026-05-04 18:51 -4.78453 11.87311 427 ft 126 kts 135°
2026-05-04 18:52 -4.79032 11.87899 296 ft 117 kts 145°
2026-05-04 18:52 -4.79765 11.88224 171 ft 115 kts 168°
2026-05-04 18:52 -4.80525 11.88402 79 ft 111 kts 169°
2026-05-04 18:52 -4.81228 11.88569 60 ft 90 kts 166°
2026-05-04 18:53 -4.81663 11.88678 57 ft 30 kts 166°
2026-05-04 18:53 -4.81773 11.88704 60 ft 23 kts 166°
2026-05-04 18:53 -4.81934 11.88716 59 ft 19 kts 264°
2026-05-04 18:53 -4.81957 11.88620 67 ft 11 kts 275°
2026-05-04 18:54 -4.81902 11.88583 67 ft 11 kts 342°
2026-05-04 18:54 -4.81811 11.88550 67 ft 11 kts 326°
2026-05-04 18:54 -4.81845 11.88534 68 ft 0 kts 165°
2026-05-04 18:55 -4.81868 11.88539 66 ft 9 kts 168°
2026-05-04 18:55 -4.81878 11.88541 68 ft 0 kts 171°